When you browse on this site, cookies collect data to enhance your experience and personalize the content and advertising you see.
Visit our Privacy Policy to learn more. By continuing to use the site, you agree to this use of cookies and data.
  • Em Portugal
  • Lista de países
  • Para 7 dias
  • Temperatura da água
  • Mapas de satélite
  • Mapa do tempo
  • Widgets de tempo
  • user-avatar
    Iniciar Sessão

    Previsão horária em Pinsk

    Hoje, 25 Maio, Sábado

    Tempo Temperatura Precipitação Vento Pressão Humidade
    00:00 +15°C° 0 mm 2 m/s 744 mmHg 93%
    01:00 +14°C° 0 mm 2 m/s 744 mmHg 93%
    02:00 +14°C° 0 mm 1 m/s 744 mmHg 94%
    03:00 +14°C° 0 mm 2 m/s 744 mmHg 94%
    04:00 +14°C° 0 mm 2 m/s 744 mmHg 94%
    05:00 +14°C° 0 mm 2 m/s 744 mmHg 95%
    06:00 +15°C° 0 mm 2 m/s 744 mmHg 91%
    07:00 +17°C° 0 mm 2 m/s 744 mmHg 88%
    08:00 +18°C° 0 mm 3 m/s 744 mmHg 84%
    09:00 +19°C° 0.1 mm 3 m/s 744 mmHg 78%
    10:00 +20°C° 0.1 mm 3 m/s 744 mmHg 73%
    11:00 +21°C° 0.1 mm 4 m/s 744 mmHg 67%
    12:00 +22°C° 0.2 mm 4 m/s 744 mmHg 65%
    13:00 +22°C° 0.2 mm 4 m/s 744 mmHg 64%
    14:00 +22°C° 0.2 mm 3 m/s 744 mmHg 62%
    15:00 +22°C° 0.5 mm 4 m/s 744 mmHg 65%
    16:00 +21°C° 0.5 mm 4 m/s 744 mmHg 68%
    17:00 +21°C° 0.5 mm 4 m/s 744 mmHg 71%
    18:00 +20°C° 0.1 mm 3 m/s 744 mmHg 75%
    19:00 +18°C° 0.1 mm 3 m/s 744 mmHg 79%
    20:00 +17°C° 0.1 mm 2 m/s 744 mmHg 84%
    21:00 +16°C° 0 mm 2 m/s 744 mmHg 85%
    22:00 +15°C° 0 mm 2 m/s 744 mmHg 87%
    23:00 +14°C° 0 mm 2 m/s 745 mmHg 88%

    Amanhã, 26 Maio, Domingo

    Tempo Temperatura Precipitação Vento Pressão Humidade
    00:00 +14°C° 0 mm 2 m/s 745 mmHg 90%
    01:00 +13°C° 0 mm 2 m/s 745 mmHg 93%
    02:00 +13°C° 0 mm 2 m/s 745 mmHg 95%
    03:00 +12°C° 0 mm 2 m/s 746 mmHg 94%
    04:00 +12°C° 0 mm 2 m/s 746 mmHg 94%
    05:00 +10°C° 0 mm 2 m/s 746 mmHg 94%
    06:00 +13°C° 0 mm 2 m/s 746 mmHg 89%
    07:00 +14°C° 0 mm 2 m/s 746 mmHg 85%
    08:00 +14°C° 0 mm 3 m/s 746 mmHg 80%
    09:00 +16°C° 0 mm 3 m/s 746 mmHg 76%
    10:00 +17°C° 0 mm 4 m/s 746 mmHg 73%
    11:00 +18°C° 0 mm 4 m/s 746 mmHg 69%
    12:00 +19°C° 0 mm 5 m/s 746 mmHg 66%
    13:00 +20°C° 0 mm 5 m/s 746 mmHg 62%
    14:00 +21°C° 0 mm 6 m/s 746 mmHg 58%
    15:00 +20°C° 0 mm 6 m/s 746 mmHg 60%
    16:00 +20°C° 0 mm 5 m/s 746 mmHg 62%
    17:00 +20°C° 0 mm 5 m/s 745 mmHg 63%
    18:00 +19°C° 0 mm 4 m/s 745 mmHg 69%
    19:00 +18°C° 0 mm 3 m/s 745 mmHg 75%
    20:00 +16°C° 0 mm 3 m/s 746 mmHg 80%
    21:00 +14°C° 0 mm 3 m/s 746 mmHg 82%
    22:00 +13°C° 0 mm 3 m/s 746 mmHg 84%
    23:00 +13°C° 0 mm 3 m/s 746 mmHg 86%

    Depois de amanhã, 27 Maio, Segunda-feira

    Tempo Temperatura Precipitação Vento Pressão Humidade
    00:00 +13°C° 0 mm 2 m/s 746 mmHg 88%
    01:00 +13°C° 0 mm 2 m/s 746 mmHg 89%
    02:00 +12°C° 0 mm 2 m/s 746 mmHg 90%
    03:00 +12°C° 0 mm 2 m/s 746 mmHg 90%
    04:00 +12°C° 0 mm 3 m/s 746 mmHg 89%
    05:00 +12°C° 0 mm 3 m/s 746 mmHg 89%
    06:00 +14°C° 0 mm 3 m/s 747 mmHg 84%
    07:00 +17°C° 0 mm 4 m/s 747 mmHg 79%
    08:00 +19°C° 0 mm 4 m/s 747 mmHg 74%
    09:00 +20°C° 0 mm 4 m/s 747 mmHg 70%
    10:00 +21°C° 0 mm 5 m/s 747 mmHg 66%
    11:00 +23°C° 0 mm 5 m/s 747 mmHg 62%
    12:00 +23°C° 0.1 mm 5 m/s 747 mmHg 60%
    13:00 +25°C° 0.1 mm 5 m/s 747 mmHg 58%
    14:00 +26°C° 0.1 mm 4 m/s 746 mmHg 56%
    15:00 +25°C° 0.1 mm 4 m/s 746 mmHg 60%
    16:00 +25°C° 0.1 mm 4 m/s 746 mmHg 64%
    17:00 +25°C° 0.1 mm 4 m/s 746 mmHg 67%
    18:00 +23°C° 0.3 mm 4 m/s 746 mmHg 73%
    19:00 +21°C° 0.3 mm 3 m/s 746 mmHg 80%
    20:00 +20°C° 0.3 mm 3 m/s 746 mmHg 86%
    21:00 +19°C° 0.4 mm 3 m/s 746 mmHg 88%
    22:00 +19°C° 0.4 mm 3 m/s 746 mmHg 90%
    23:00 +18°C° 0.4 mm 3 m/s 746 mmHg 92%

    28 Maio, Terça-feira

    Tempo Temperatura Precipitação Vento Pressão Humidade
    00:00 +18°C° 0 mm 2 m/s 746 mmHg 92%
    01:00 +17°C° 0 mm 2 m/s 746 mmHg 92%
    02:00 +17°C° 0 mm 2 m/s 746 mmHg 92%
    03:00 +17°C° 0 mm 2 m/s 746 mmHg 92%
    04:00 +17°C° 0 mm 2 m/s 746 mmHg 93%
    05:00 +17°C° 0 mm 2 m/s 746 mmHg 93%
    06:00 +18°C° 0 mm 2 m/s 746 mmHg 90%
    07:00 +20°C° 0 mm 2 m/s 745 mmHg 87%
    08:00 +21°C° 0 mm 3 m/s 745 mmHg 84%
    09:00 +22°C° 0.7 mm 3 m/s 745 mmHg 81%
    10:00 +24°C° 0.7 mm 3 m/s 745 mmHg 78%
    11:00 +25°C° 0.7 mm 4 m/s 745 mmHg 76%
    12:00 +25°C° 0.5 mm 3 m/s 745 mmHg 72%
    13:00 +26°C° 0.5 mm 3 m/s 744 mmHg 69%
    14:00 +27°C° 0.5 mm 3 m/s 744 mmHg 65%
    15:00 +27°C° 0.4 mm 3 m/s 744 mmHg 67%
    16:00 +27°C° 0.4 mm 4 m/s 743 mmHg 68%
    17:00 +27°C° 0.4 mm 4 m/s 743 mmHg 69%
    18:00 +26°C° 0.6 mm 4 m/s 743 mmHg 75%
    19:00 +23°C° 0.6 mm 4 m/s 743 mmHg 80%
    20:00 +21°C° 0.6 mm 3 m/s 743 mmHg 86%
    21:00 +21°C° 0 mm 4 m/s 743 mmHg 86%
    22:00 +20°C° 0 mm 4 m/s 743 mmHg 87%
    23:00 +19°C° 0 mm 4 m/s 743 mmHg 87%

    29 Maio, Quarta-feira

    Tempo Temperatura Precipitação Vento Pressão Humidade
    00:00 +19°C° 0 mm 4 m/s 742 mmHg 86%
    01:00 +18°C° 0 mm 4 m/s 742 mmHg 84%
    02:00 +17°C° 0 mm 5 m/s 742 mmHg 83%
    03:00 +16°C° 0 mm 5 m/s 742 mmHg 84%
    04:00 +16°C° 0 mm 5 m/s 742 mmHg 85%
    05:00 +15°C° 0 mm 5 m/s 741 mmHg 86%
    06:00 +17°C° 0.2 mm 5 m/s 742 mmHg 85%
    07:00 +19°C° 0.2 mm 5 m/s 742 mmHg 83%
    08:00 +20°C° 0.2 mm 4 m/s 742 mmHg 82%
    09:00 +22°C° 0 mm 4 m/s 742 mmHg 77%
    10:00 +23°C° 0 mm 5 m/s 742 mmHg 72%
    11:00 +26°C° 0 mm 5 m/s 743 mmHg 66%
    12:00 +25°C° 0.1 mm 5 m/s 743 mmHg 68%
    13:00 +25°C° 0.1 mm 5 m/s 743 mmHg 70%
    14:00 +25°C° 0.1 mm 5 m/s 743 mmHg 71%
    15:00 +25°C° 0.6 mm 5 m/s 743 mmHg 72%
    16:00 +25°C° 0.6 mm 5 m/s 743 mmHg 73%
    17:00 +25°C° 0.6 mm 4 m/s 743 mmHg 73%
    18:00 +22°C° 0.4 mm 4 m/s 743 mmHg 78%
    19:00 +21°C° 0.4 mm 3 m/s 743 mmHg 83%
    20:00 +20°C° 0.4 mm 3 m/s 744 mmHg 88%
    21:00 +19°C° 0 mm 3 m/s 744 mmHg 90%
    22:00 +18°C° 0 mm 4 m/s 745 mmHg 93%
    23:00 +17°C° 0 mm 4 m/s 746 mmHg 95%

    30 Maio, Quinta-feira

    Tempo Temperatura Precipitação Vento Pressão Humidade
    00:00 +15°C° 0 mm 5 m/s 746 mmHg 94%
    01:00 +14°C° 0 mm 5 m/s 747 mmHg 93%
    02:00 +13°C° 0 mm 5 m/s 748 mmHg 92%
    03:00 +12°C° 0 mm 5 m/s 748 mmHg 91%
    04:00 +10°C° 0 mm 5 m/s 749 mmHg 91%
    05:00 +11°C° 0 mm 4 m/s 749 mmHg 90%
    06:00 +11°C° 0 mm 4 m/s 750 mmHg 88%
    07:00 +12°C° 0 mm 4 m/s 751 mmHg 86%
    08:00 +12°C° 0 mm 4 m/s 751 mmHg 83%
    09:00 +14°C° 0 mm 4 m/s 752 mmHg 76%
    10:00 +15°C° 0 mm 4 m/s 752 mmHg 70%
    11:00 +18°C° 0 mm 4 m/s 752 mmHg 63%
    12:00 +19°C° 0 mm 4 m/s 753 mmHg 60%
    13:00 +19°C° 0 mm 4 m/s 753 mmHg 57%
    14:00 +20°C° 0 mm 4 m/s 753 mmHg 55%
    15:00 +20°C° 0 mm 3 m/s 753 mmHg 56%
    16:00 +20°C° 0 mm 3 m/s 753 mmHg 56%
    17:00 +20°C° 0 mm 3 m/s 752 mmHg 57%
    18:00 +18°C° 0 mm 3 m/s 752 mmHg 63%
    19:00 +17°C° 0 mm 2 m/s 752 mmHg 68%
    20:00 +16°C° 0 mm 2 m/s 752 mmHg 74%
    21:00 +15°C° 0 mm 2 m/s 752 mmHg 75%
    22:00 +14°C° 0 mm 2 m/s 752 mmHg 76%
    23:00 +13°C° 0 mm 1 m/s 752 mmHg 77%
    Mostrar mais